Weather in Canberra

Australia     35°18′24″S   149°07′31″E
temp.,
°C
wind,
m/s
gust,
m/s
humid.,
%
clouds,
%
prec.,
mm/h
press.,
hPa
HPBL,
m
14 april, wed
wed1401:00+9nw3105774 0.0 1017286
04:00+9nw3135799 0.0 1016377
07:00+9nw4145538 0.0 1016454
10:00+16wnw8143692 0.0 10141226
13:00+13nw4134471 0.0 1014955
16:00+14nw51144100 0.0 10131093
19:00+12wnw38470 0.0 1016296
22:00+7nw12630 0.0 101734
15 april, thu
thu1501:00+6wsw11760 0.0 101712
04:00+4wsw11870 0.0 101711
07:00+4w11900 0.0 101813
10:00+14wnw47520 0.0 10161045
13:00+18wnw810350 0.0 10131522
16:00+16wnw68380 0.0 10131287
19:00+9wnw49577 0.0 1016215
22:00+6w117575 0.0 101913
16 april, fri
fri1601:00+5s118186 0.0 102013
04:00+4sse11850 0.0 102111
07:00+4s22840 0.0 102329
10:00+14ene23512 0.0 10221008
13:00+17nnw22405 0.0 10201770
16:00+17n124011 0.0 10191701
19:00+9e410760 0.0 1023385
22:00+5se239217 0.0 102673
17 april, sat
sat1701:00+5se229415 0.0 102627
04:00+4sse11949 0.0 102513
07:00+5ese11935 0.0 102515
10:00+14sw125628 0.0 1021524
13:00+18n223812 0.0 10191971
16:00+17ene224297 0.0 10191382
19:00+12e4870100 0.0 1022430
22:00+9e128959 0.0 102384
18 april, sun
sun1801:00+7ese1196100 0.0 102214
04:00+6ese1196100 0.0 102112
07:00+6se0096100 0.0 102215
10:00+13wnw22643 0.0 1020643
13:00+17nw33440 0.0 10181299
16:00+17nnw44410 0.0 10161147
19:00+9nnw365912 0.0 1019100
22:00+7se11680 0.0 102013